Погода в Тамбове

Россия / Тамбовская область     52°43′16″N   41°27′08″E
темп.,
°C
ветер,
м/с
пор.,
м/с
влажн.,
%
обл.,
%
осадки,
мм/ч
давл.,
гПа
погр.,
м
28 февраля, вс
вс2800:00−9ссз489397 0.0 1012390
03:00−10ссз369392 0.0 1014269
06:00−10сз379462 0.0 1014292
09:00−9сз359173 0.1 1015313
12:00−6сз358797 0.1 1015502
15:00−5сз468798 0.1 1015499
18:00−7ссз259499 0.1 1016201
21:00−8с359599 0.1 1018163
1 марта, пн
пн100:00−9ссв229595 0.0 102055
03:00−10с229551 0.0 102222
06:00−11с229533 0.0 102327
09:00−9ссз239147 0.0 1026179
12:00−6зсз228496 0.0 1026398
15:00−5з348798 0.0 1026358
18:00−7зюз349551 0.0 102495
21:00−6зюз499460 0.0 1024222
2 марта, вт
вт200:00−5зюз51295100 0.0 1021345
03:00−3зюз71394100 0.1 1018493
06:00−2зюз71596100 0.8 1013581
09:000з81497100 2.4 1010764
12:00+1зсз71397100 0.6 1008787
15:00+1сз7138799 1.1 1008949
18:00−2сз61486100 0.1 1009650
21:00−3сз5129268 0.1 1011426
3 марта, ср
ср300:00−2сз6129399 0.1 1011572
03:00−4сз51194100 0.3 1011538
06:00−4сз5139499 0.1 1011493
09:00−3ссз7128798 0.1 1013940
12:00−2ссз81283100 0.2 10141212
15:00−2ссз81281100 0.3 10161174
18:00−4сз51288100 0.1 1017565
21:00−5сз4109466 0.1 1019288
4 марта, чт
чт400:00−7сз48947 0.0 1020194
03:00−8зсз379413 0.0 1021156
06:00−8з379543 0.0 1021155
09:00−5з489133 0.0 1021277
12:00−2зюз61088100 0.0 1019449
15:000зюз7128581 0.0 1017692
18:00−2юз5148638 0.0 1015467
21:00−2юз7158366 0.0 1014517